time,Brood Temp,In Humid,In Temp,Out Humid,Out Temp,Voltage,Weight
2016-10-31T23:01:22.000000Z,32.7,79.3,15.6,99.9,7.4,4.18,27.184
2016-10-31T23:31:22.000000Z,32.6,89.0,15.5,99.9,7.4,4.18,27.185
2016-11-01T00:01:22.000000Z,32.2,83.9,15.2,99.9,6.9,4.17,27.18
2016-11-01T00:31:22.000000Z,31.5,82.6,14.8,99.9,6.4,4.17,27.179
2016-11-01T01:31:22.000000Z,32.1,84.3,14.1,99.9,6.0,4.17,27.181
2016-11-01T02:01:22.000000Z,32.1,83.4,14.1,99.9,5.9,4.17,27.185
2016-11-01T02:31:22.000000Z,32.1,81.9,13.7,99.9,5.9,4.17,27.186
2016-11-01T03:01:22.000000Z,31.5,87.0,13.6,99.9,5.8,4.16,27.183
2016-11-01T03:31:22.000000Z,32.5,87.4,13.4,99.9,5.8,4.17,27.186
2016-11-01T04:01:22.000000Z,31.8,84.9,13.4,99.9,5.8,4.17,27.184
2016-11-01T04:31:22.000000Z,31.8,85.2,13.1,99.9,5.5,4.16,27.185
2016-11-01T05:01:22.000000Z,31.4,89.1,13.0,99.9,5.4,4.16,27.184
2016-11-01T05:31:22.000000Z,33.0,84.4,12.9,99.9,5.1,4.16,27.181
2016-11-01T06:01:22.000000Z,32.3,93.9,12.9,99.9,4.9,4.16,27.181
2016-11-01T06:31:22.000000Z,31.8,88.9,12.8,99.9,5.3,4.16,27.187
2016-11-01T07:01:22.000000Z,32.6,92.5,12.7,99.9,5.3,4.16,27.183
2016-11-01T07:31:22.000000Z,32.3,85.9,12.7,99.9,5.4,4.16,27.187
2016-11-01T08:01:22.000000Z,32.1,86.3,12.6,99.9,5.5,4.16,27.187
2016-11-01T08:31:22.000000Z,32.2,84.3,12.5,99.9,5.5,4.16,27.187
2016-11-01T09:01:22.000000Z,31.8,92.5,12.8,99.9,6.6,4.16,27.194
2016-11-01T09:31:22.000000Z,31.6,90.4,13.4,99.9,7.6,4.16,27.197
2016-11-01T10:01:22.000000Z,31.2,90.0,13.5,99.9,9.0,4.16,27.197
2016-11-01T10:31:22.000000Z,32.2,99.9,14.6,99.9,10.5,4.17,27.196
2016-11-01T11:01:22.000000Z,32.3,99.3,15.8,99.9,11.7,4.18,27.191
2016-11-01T11:31:22.000000Z,32.0,96.6,17.1,99.9,12.4,4.2,27.184
2016-11-01T12:01:22.000000Z,31.8,91.2,17.5,99.9,13.0,4.2,27.179
2016-11-01T13:01:22.000000Z,32.3,92.0,18.2,99.9,13.9,4.19,27.16
2016-11-01T13:31:22.000000Z,32.6,90.4,18.7,99.9,14.4,4.19,27.139
2016-11-01T14:01:22.000000Z,31.9,90.2,18.7,99.9,14.6,4.2,27.145
2016-11-01T14:31:22.000000Z,32.2,86.7,19.1,99.9,14.0,4.2,27.133
2016-11-01T15:01:22.000000Z,32.8,85.5,18.6,99.9,13.7,4.2,27.129
2016-11-01T15:31:22.000000Z,31.8,86.4,18.4,99.9,13.4,4.2,27.131
2016-11-01T16:01:22.000000Z,31.1,86.2,18.1,99.9,13.2,4.2,27.135
2016-11-01T16:31:22.000000Z,31.4,84.6,18.3,99.9,13.0,4.19,27.133
2016-11-01T17:01:22.000000Z,31.6,85.0,18.0,99.9,12.7,4.19,27.134
2016-11-01T17:31:22.000000Z,31.6,91.1,17.9,99.9,12.6,4.19,27.135
2016-11-01T18:01:22.000000Z,31.4,88.9,17.6,99.9,12.3,4.19,27.133
2016-11-01T18:31:22.000000Z,30.8,87.6,17.1,99.9,12.0,4.19,27.131
2016-11-01T19:01:22.000000Z,30.6,89.7,16.8,99.9,11.1,4.18,27.185
2016-11-01T19:31:22.000000Z,30.9,90.0,16.6,99.9,10.0,4.19,27.188
2016-11-01T20:01:22.000000Z,30.6,84.5,16.0,99.9,9.3,4.18,27.189
2016-11-01T20:31:22.000000Z,31.4,83.8,15.3,99.9,9.0,4.18,27.204
2016-11-01T21:01:22.000000Z,30.8,82.5,14.9,99.9,8.8,4.18,27.205
2016-11-01T21:31:22.000000Z,30.0,83.4,14.6,99.9,8.7,4.18,27.205
2016-11-01T22:01:22.000000Z,29.8,85.4,14.4,99.9,8.6,4.18,27.194
2016-11-01T22:31:22.000000Z,29.5,84.5,14.2,99.9,8.5,4.18,27.186
2016-11-01T23:01:22.000000Z,29.9,85.2,14.0,99.9,8.5,4.18,27.19
2016-11-01T23:31:22.000000Z,29.8,84.6,13.8,99.9,8.5,4.18,27.186
2016-11-02T00:01:22.000000Z,29.8,87.7,13.6,99.9,7.7,4.17,27.182
2016-11-02T01:01:22.000000Z,30.3,84.3,12.9,99.9,7.4,4.17,27.188
2016-11-02T01:31:22.000000Z,29.6,87.7,12.9,99.9,7.4,4.17,27.184
2016-11-02T02:01:22.000000Z,30.3,84.7,12.5,99.9,7.1,4.16,27.185
2016-11-02T02:31:22.000000Z,30.6,85.1,12.3,99.9,6.8,4.17,27.186
2016-11-02T03:01:22.000000Z,29.4,88.2,12.1,99.9,6.9,4.16,27.188
2016-11-02T03:31:22.000000Z,29.9,89.4,11.9,99.9,6.8,4.16,27.182
2016-11-02T04:01:22.000000Z,29.7,88.9,11.7,99.9,6.6,4.16,27.184
2016-11-02T04:31:22.000000Z,28.8,90.4,11.7,99.9,6.3,4.16,27.184
2016-11-02T05:01:22.000000Z,29.4,90.6,11.6,99.9,6.0,4.16,27.185
2016-11-02T05:31:22.000000Z,29.1,86.0,11.4,99.9,5.9,4.16,27.186
2016-11-02T06:01:22.000000Z,30.9,89.4,11.4,99.9,6.2,4.16,27.185
2016-11-02T06:31:22.000000Z,28.9,91.7,11.2,99.9,6.2,4.16,27.183
2016-11-02T07:01:22.000000Z,30.3,90.6,11.3,99.9,6.1,4.16,27.176
2016-11-02T07:31:22.000000Z,29.4,97.1,11.6,99.9,6.3,4.16,27.175
2016-11-02T08:01:22.000000Z,29.1,92.9,11.8,99.9,6.5,4.16,27.18
2016-11-02T08:31:22.000000Z,30.3,90.8,12.8,99.9,6.7,4.16,27.153
2016-11-02T09:01:22.000000Z,30.8,91.9,12.7,99.9,6.9,4.15,27.156
2016-11-02T09:31:22.000000Z,29.4,87.5,12.2,99.9,6.6,4.15,27.186
2016-11-02T10:01:22.000000Z,30.4,89.6,12.4,99.9,7.3,4.16,27.178
2016-11-02T10:31:22.000000Z,30.9,89.6,12.8,99.9,8.1,4.16,27.171
2016-11-02T11:01:22.000000Z,31.2,87.3,13.1,99.9,8.5,4.17,27.157
2016-11-02T12:01:22.000000Z,29.9,83.8,12.9,99.9,8.4,4.16,27.138
2016-11-02T12:31:22.000000Z,30.3,80.2,12.8,99.9,9.1,4.18,27.137
2016-11-02T13:31:22.000000Z,29.1,81.9,13.0,99.9,9.7,4.18,27.12
2016-11-02T14:01:22.000000Z,30.4,85.4,13.6,99.9,9.6,4.18,27.1
2016-11-02T14:31:22.000000Z,29.7,73.8,13.9,94.5,10.0,4.19,27.081
2016-11-02T15:01:22.000000Z,29.2,80.4,14.0,99.9,8.6,4.18,27.14
2016-11-02T15:31:22.000000Z,29.7,79.2,13.5,99.9,7.4,4.18,27.13
2016-11-02T16:01:22.000000Z,29.8,84.5,13.1,99.9,7.7,4.18,27.134
2016-11-02T16:31:22.000000Z,29.8,83.7,12.8,99.9,8.2,4.18,27.131
2016-11-02T17:01:22.000000Z,29.0,86.5,12.9,99.9,7.8,4.17,27.143
2016-11-02T17:31:22.000000Z,29.1,89.5,12.7,99.9,7.6,4.17,27.141
2016-11-02T18:01:22.000000Z,29.3,85.9,12.1,99.9,7.4,4.17,27.132
2016-11-02T18:31:22.000000Z,29.3,89.1,11.7,99.9,7.4,4.16,27.136
2016-11-02T19:01:22.000000Z,29.3,87.0,11.5,99.9,7.2,4.17,27.138
2016-11-02T19:31:22.000000Z,29.0,85.7,11.3,99.9,7.1,4.16,27.136
2016-11-02T20:01:22.000000Z,28.4,87.6,11.2,99.9,7.4,4.16,27.16
2016-11-02T20:31:22.000000Z,29.2,88.0,11.1,99.9,7.4,4.16,27.136
2016-11-02T21:01:22.000000Z,29.1,89.2,11.1,99.9,7.3,4.16,27.146
2016-11-02T21:31:22.000000Z,29.3,88.7,11.1,99.9,7.3,4.16,27.147
2016-11-02T22:31:22.000000Z,29.8,90.5,11.3,99.9,7.0,4.16,27.146
2016-11-02T23:01:22.000000Z,29.4,90.7,11.2,99.9,6.8,4.16,27.144
2016-11-02T23:31:22.000000Z,28.6,92.3,11.1,99.9,6.7,4.16,27.144
2016-11-03T00:01:22.000000Z,28.8,92.5,11.1,99.9,6.6,4.15,27.136
2016-11-03T00:31:22.000000Z,29.3,91.4,11.2,99.9,6.4,4.16,27.139
2016-11-03T01:01:22.000000Z,29.3,90.9,11.1,99.9,6.5,4.15,27.141
2016-11-03T01:31:22.000000Z,29.6,99.9,11.1,99.9,6.5,4.15,27.14
2016-11-03T02:01:22.000000Z,29.3,92.5,11.2,99.9,6.4,4.15,27.14
2016-11-03T03:01:22.000000Z,29.5,92.0,10.9,99.9,6.4,4.15,27.14
2016-11-03T03:31:22.000000Z,30.1,97.4,10.9,99.9,6.3,4.14,27.14
2016-11-03T04:01:22.000000Z,27.7,92.8,10.8,99.9,6.4,4.15,27.14
2016-11-03T04:31:22.000000Z,29.6,96.2,10.8,99.9,6.5,4.14,27.14
2016-11-03T05:01:22.000000Z,30.1,98.4,11.1,99.9,6.5,4.14,27.143
2016-11-03T05:31:22.000000Z,27.8,92.7,10.9,99.9,6.6,4.14,27.147
2016-11-03T06:01:22.000000Z,29.8,97.7,11.1,99.9,6.6,4.14,27.14
2016-11-03T06:31:22.000000Z,30.0,94.9,11.2,99.9,6.6,4.14,27.139
2016-11-03T07:01:22.000000Z,29.4,93.9,11.3,99.9,6.6,4.14,27.137
2016-11-03T07:31:22.000000Z,29.6,99.9,11.6,99.9,6.6,4.14,27.135
2016-11-03T08:01:22.000000Z,32.1,96.7,11.3,99.9,6.6,4.14,27.134
2016-11-03T08:31:22.000000Z,31.8,97.8,11.6,99.9,6.8,4.14,27.132
2016-11-03T09:01:22.000000Z,29.9,99.9,11.5,99.9,6.9,4.14,27.13
2016-11-03T09:31:22.000000Z,30.1,94.4,11.7,99.9,7.2,4.14,27.127
2016-11-03T10:01:22.000000Z,29.6,94.8,11.8,99.9,7.4,4.14,27.121
2016-11-03T10:31:22.000000Z,30.8,95.1,11.8,99.9,7.5,4.14,27.12
2016-11-03T11:01:22.000000Z,29.9,99.9,12.2,99.9,7.9,4.14,27.11
2016-11-03T11:31:22.000000Z,30.9,98.0,12.2,99.9,8.0,4.14,27.111
2016-11-03T12:01:22.000000Z,29.4,96.2,12.4,99.9,8.4,4.14,27.111
2016-11-03T13:01:22.000000Z,30.5,95.7,12.6,99.9,8.8,4.14,27.102
2016-11-03T13:31:22.000000Z,31.0,99.9,12.9,99.9,9.0,4.14,27.089
2016-11-03T14:01:22.000000Z,29.6,95.7,13.1,99.9,9.0,4.14,27.089
2016-11-03T14:31:22.000000Z,30.6,97.2,13.0,99.9,9.0,4.14,27.087
2016-11-03T15:01:22.000000Z,30.4,95.9,13.2,99.9,8.9,4.14,27.073
2016-11-03T15:31:22.000000Z,29.6,92.8,13.2,99.9,9.0,4.14,27.078
2016-11-03T16:01:22.000000Z,30.4,93.1,13.2,99.9,8.9,4.14,27.076
2016-11-03T16:31:22.000000Z,31.4,92.4,13.1,99.9,8.8,4.14,27.07
2016-11-03T17:01:22.000000Z,29.8,91.3,13.2,99.9,8.0,4.13,27.068
2016-11-03T17:31:22.000000Z,29.7,90.9,13.1,99.9,7.3,4.14,27.065
2016-11-03T18:01:22.000000Z,30.1,93.8,12.8,99.9,6.9,4.13,27.064
2016-11-03T18:31:22.000000Z,29.9,94.2,12.2,99.9,6.5,4.13,27.063
2016-11-03T19:01:22.000000Z,29.6,91.5,11.9,99.9,6.7,4.13,27.069
2016-11-03T19:31:22.000000Z,31.3,91.0,11.7,99.9,6.6,4.13,27.067
2016-11-03T20:01:22.000000Z,29.1,90.5,11.4,99.9,6.3,4.13,27.065
2016-11-03T20:31:22.000000Z,29.1,90.4,11.1,99.9,6.1,4.13,27.065
2016-11-03T21:01:22.000000Z,28.3,90.5,11.0,99.9,6.3,4.13,27.067
2016-11-03T22:01:22.000000Z,29.3,90.8,10.9,99.9,6.1,4.13,27.067
2016-11-03T22:31:22.000000Z,29.0,90.9,10.8,99.9,6.2,4.13,27.067
2016-11-03T23:01:22.000000Z,29.4,90.9,10.7,99.9,6.3,4.13,27.068
2016-11-03T23:31:22.000000Z,29.8,94.5,10.8,99.9,6.4,4.13,27.067
2016-11-04T00:31:22.000000Z,28.4,91.0,10.4,99.9,6.0,4.13,27.062
2016-11-04T01:01:22.000000Z,29.1,91.1,10.4,99.9,5.9,4.13,27.062
2016-11-04T01:31:22.000000Z,28.9,91.1,10.3,99.9,5.2,4.13,27.058
2016-11-04T02:01:22.000000Z,28.6,91.3,10.2,99.9,4.8,4.13,27.056
2016-11-04T02:31:22.000000Z,28.3,90.6,10.0,99.9,4.5,4.13,27.058
2016-11-04T03:01:22.000000Z,30.1,95.0,10.0,99.9,4.7,4.12,27.062
2016-11-04T03:31:22.000000Z,28.6,99.9,10.3,99.9,5.1,4.12,27.064
2016-11-04T04:01:22.000000Z,30.2,93.1,10.0,99.9,5.4,4.12,27.064
2016-11-04T04:31:22.000000Z,30.9,92.4,9.8,99.9,5.5,4.12,27.061
2016-11-04T05:01:22.000000Z,30.9,93.3,9.8,99.9,5.7,4.12,27.062
2016-11-04T05:31:22.000000Z,30.6,99.9,10.2,99.9,5.8,4.12,27.06
2016-11-04T06:01:22.000000Z,30.9,99.9,10.3,99.9,6.0,4.12,27.06
2016-11-04T06:31:22.000000Z,30.8,93.9,10.2,99.9,6.1,4.12,27.059
2016-11-04T07:01:22.000000Z,29.9,93.6,10.1,99.9,6.2,4.12,27.057
2016-11-04T07:31:22.000000Z,30.6,94.2,10.2,99.9,6.3,4.12,27.057
2016-11-04T08:01:22.000000Z,30.4,92.7,10.4,99.9,6.3,4.12,27.047
2016-11-04T08:31:22.000000Z,29.7,92.6,10.3,99.9,6.3,4.12,27.048
2016-11-04T09:01:22.000000Z,30.6,99.9,10.6,99.9,6.4,4.11,27.047
2016-11-04T09:31:22.000000Z,30.3,94.2,10.6,99.9,6.6,4.11,27.047
2016-11-04T10:01:22.000000Z,30.6,93.2,10.7,99.9,7.0,4.12,27.042
2016-11-04T10:31:22.000000Z,30.8,99.9,11.4,99.9,7.2,4.11,27.041
2016-11-04T11:01:22.000000Z,30.4,95.9,11.6,99.9,7.8,4.12,27.036
2016-11-04T11:31:22.000000Z,31.0,94.1,11.6,99.9,8.4,4.12,27.031
2016-11-04T12:01:22.000000Z,30.9,92.8,11.7,99.9,8.8,4.12,27.028
2016-11-04T12:31:22.000000Z,30.7,93.0,12.1,99.9,9.7,4.13,27.018
2016-11-04T13:01:22.000000Z,31.4,93.9,13.0,99.9,10.8,4.16,27.028
2016-11-04T13:31:22.000000Z,31.3,91.5,14.3,99.8,10.9,4.18,27.011
2016-11-04T14:01:22.000000Z,30.9,88.6,15.2,99.9,10.7,4.18,26.997
2016-11-04T14:31:22.000000Z,32.1,84.7,15.5,99.9,10.3,4.17,26.985
2016-11-04T15:01:22.000000Z,31.6,82.3,15.4,99.9,10.5,4.17,26.981
2016-11-04T15:31:22.000000Z,31.1,80.2,15.8,99.9,10.4,4.17,26.971
2016-11-04T16:01:22.000000Z,30.9,82.1,15.9,99.9,9.8,4.16,26.962
2016-11-04T16:31:22.000000Z,30.4,78.7,15.8,99.9,9.2,4.16,26.959
2016-11-04T17:01:22.000000Z,31.1,78.9,15.6,99.9,8.3,4.16,26.952
2016-11-04T17:31:22.000000Z,30.9,80.9,14.7,99.9,7.7,4.16,26.951
2016-11-04T18:01:22.000000Z,29.9,82.5,14.1,99.9,7.2,4.16,26.949
2016-11-04T18:31:22.000000Z,31.4,82.2,13.3,99.9,6.7,4.15,26.953
2016-11-04T19:01:22.000000Z,30.9,82.5,12.8,99.9,6.5,4.15,26.952
2016-11-04T19:31:22.000000Z,29.9,81.6,12.3,99.9,6.4,4.15,26.956
2016-11-04T20:01:22.000000Z,31.1,82.3,11.9,99.9,6.3,4.15,26.959
2016-11-04T20:31:22.000000Z,29.6,87.3,11.8,99.9,6.2,4.14,26.958
2016-11-04T21:01:22.000000Z,30.0,84.4,11.6,99.9,5.9,4.14,26.958
2016-11-04T21:31:22.000000Z,30.3,84.0,11.4,99.9,5.9,4.14,26.959
2016-11-04T22:01:22.000000Z,29.4,85.1,11.2,99.9,6.0,4.14,26.96
2016-11-04T22:31:22.000000Z,29.1,84.4,11.0,99.9,6.1,4.14,26.959
2016-11-04T23:01:22.000000Z,31.1,84.5,11.0,99.9,6.2,4.14,26.961
2016-11-04T23:31:22.000000Z,30.2,84.9,10.8,99.9,6.4,4.14,26.961
2016-11-05T00:01:22.000000Z,29.8,85.6,10.9,99.9,6.7,4.14,26.968
2016-11-05T00:31:22.000000Z,29.9,86.1,10.9,99.9,6.8,4.14,26.973
2016-11-05T01:01:22.000000Z,29.1,86.6,10.9,99.9,6.8,4.14,26.973
2016-11-05T01:31:22.000000Z,28.6,86.6,10.9,99.9,6.7,4.14,26.97
2016-11-05T02:31:22.000000Z,29.1,87.3,10.8,99.9,6.7,4.13,26.984
2016-11-05T03:01:22.000000Z,29.5,87.2,10.7,99.9,6.7,4.13,26.981
2016-11-05T03:31:22.000000Z,30.0,87.2,10.7,99.9,6.7,4.13,26.979
2016-11-05T04:01:22.000000Z,29.4,87.2,10.7,99.9,6.7,4.13,26.983
2016-11-05T04:31:22.000000Z,29.9,88.2,10.6,99.9,6.7,4.13,26.988
2016-11-05T05:01:22.000000Z,29.6,87.5,10.6,99.9,6.7,4.13,26.999
2016-11-05T05:31:22.000000Z,29.3,88.6,10.6,99.9,6.5,4.13,27.011
2016-11-05T06:31:22.000000Z,29.7,88.4,10.6,99.9,6.6,4.13,27.012
2016-11-05T07:01:22.000000Z,29.6,90.2,10.7,99.9,6.7,4.13,27.008
2016-11-05T07:31:22.000000Z,29.4,91.4,11.0,99.9,6.8,4.13,27.006
2016-11-05T08:01:22.000000Z,29.4,91.2,10.9,99.9,6.9,4.13,27.011
2016-11-05T08:31:22.000000Z,29.7,91.5,11.1,99.9,7.0,4.13,27.007
2016-11-05T09:01:22.000000Z,30.8,92.8,11.3,99.9,7.2,4.13,27.005
2016-11-05T09:31:22.000000Z,31.1,91.4,11.4,99.9,7.4,4.13,27.005
2016-11-05T10:01:22.000000Z,30.8,93.2,12.0,99.9,7.5,4.12,27.0
2016-11-05T10:31:22.000000Z,31.3,94.2,12.1,99.9,7.7,4.12,26.993
2016-11-05T11:01:22.000000Z,30.9,92.1,12.2,99.9,7.9,4.12,26.991
2016-11-05T11:31:22.000000Z,30.7,93.0,12.4,99.9,8.2,4.12,26.978
2016-11-05T12:01:22.000000Z,30.6,95.6,13.8,99.9,8.6,4.12,26.978
2016-11-05T12:31:22.000000Z,31.8,96.0,14.4,99.9,8.6,4.12,26.975
2016-11-05T13:01:22.000000Z,31.6,90.9,15.1,99.9,8.5,4.12,26.977
2016-11-05T13:31:22.000000Z,32.0,89.0,15.1,99.9,8.2,4.12,27.006
2016-11-05T14:01:22.000000Z,30.8,88.8,15.1,99.9,8.2,4.12,26.997
2016-11-05T14:31:22.000000Z,30.9,89.6,14.6,99.9,8.2,4.12,26.989
2016-11-05T15:01:22.000000Z,30.6,90.2,14.8,99.9,8.3,4.12,26.977
2016-11-05T15:31:22.000000Z,30.4,84.9,14.5,99.9,8.5,4.12,26.964
2016-11-05T16:01:22.000000Z,30.5,88.5,14.2,99.9,8.1,4.12,26.968
2016-11-05T16:31:22.000000Z,30.8,84.5,14.6,99.9,7.5,4.12,26.96
2016-11-05T17:01:22.000000Z,31.1,82.5,14.4,99.9,7.2,4.12,26.96
2016-11-05T17:31:22.000000Z,30.1,83.7,13.6,99.9,6.2,4.12,26.956
2016-11-05T18:01:22.000000Z,30.0,83.7,13.0,99.9,5.6,4.12,26.955
2016-11-05T18:31:22.000000Z,30.2,86.4,12.4,99.9,5.7,4.11,26.959
2016-11-05T19:01:22.000000Z,30.2,87.0,12.0,99.9,6.3,4.11,26.963
2016-11-05T19:31:22.000000Z,30.0,89.6,11.8,99.9,6.4,4.11,26.987
2016-11-05T20:01:22.000000Z,28.7,87.9,11.5,99.9,6.3,4.11,26.978
2016-11-05T20:31:22.000000Z,28.6,88.2,11.4,99.9,6.3,4.11,26.973
2016-11-05T21:01:22.000000Z,29.6,89.2,11.3,99.9,6.3,4.11,26.97
2016-11-05T21:31:22.000000Z,29.7,89.4,11.2,99.9,6.3,4.11,26.97
2016-11-05T22:01:22.000000Z,29.6,89.4,11.0,99.9,6.4,4.11,26.967
2016-11-05T22:31:22.000000Z,30.5,89.1,11.0,99.9,6.5,4.11,26.968
2016-11-05T23:01:22.000000Z,30.6,89.0,10.9,99.9,6.3,4.11,26.965
2016-11-05T23:31:22.000000Z,30.6,88.3,10.7,99.9,6.1,4.11,26.965
2016-11-06T00:01:22.000000Z,29.8,93.6,10.7,99.9,6.2,4.11,26.965
2016-11-06T00:31:22.000000Z,30.8,90.7,10.7,99.9,6.4,4.11,26.965
2016-11-06T01:01:22.000000Z,29.8,90.4,10.7,99.9,6.4,4.11,26.963
2016-11-06T01:31:22.000000Z,29.0,89.7,10.5,99.9,6.2,4.11,26.961
2016-11-06T02:01:22.000000Z,30.3,89.4,10.4,99.9,6.0,4.11,26.959
2016-11-06T02:31:22.000000Z,30.9,91.7,10.4,99.9,6.3,4.11,26.957
2016-11-06T03:01:22.000000Z,29.2,90.0,10.4,99.9,6.3,4.11,26.952
2016-11-06T03:31:22.000000Z,29.1,91.0,10.3,99.9,6.1,4.11,26.951
2016-11-06T04:01:22.000000Z,29.5,90.1,10.2,99.9,5.9,4.1,26.949
2016-11-06T05:01:22.000000Z,29.2,90.1,9.9,99.9,5.3,4.11,26.946
2016-11-06T05:31:22.000000Z,31.0,90.1,9.8,99.9,4.9,4.11,26.947
2016-11-06T06:01:22.000000Z,31.1,90.0,9.6,99.9,4.7,4.11,26.948
2016-11-06T06:31:22.000000Z,27.9,89.3,9.4,99.9,4.6,4.1,26.943
2016-11-06T07:01:22.000000Z,29.4,90.1,9.2,99.9,4.7,4.1,26.947
2016-11-06T07:31:22.000000Z,29.1,90.0,9.3,99.9,4.5,4.11,26.944
2016-11-06T08:01:22.000000Z,30.2,90.5,9.3,99.9,4.6,4.1,26.943
2016-11-06T08:31:22.000000Z,28.6,90.5,9.3,99.9,5.1,4.1,26.949
2016-11-06T09:01:22.000000Z,29.8,92.0,9.5,99.9,5.6,4.1,26.946
2016-11-06T09:31:22.000000Z,29.7,93.6,9.8,99.9,6.0,4.1,26.942
2016-11-06T10:31:22.000000Z,30.0,99.9,10.8,99.9,7.7,4.11,26.94
2016-11-06T11:01:22.000000Z,29.8,99.9,12.1,99.9,7.6,4.11,26.927
2016-11-06T11:31:22.000000Z,31.2,92.8,12.5,99.9,7.4,4.11,26.924
2016-11-06T12:01:22.000000Z,31.1,91.8,12.6,99.9,7.6,4.11,26.912
2016-11-06T12:31:22.000000Z,30.8,90.8,12.7,99.9,7.5,4.11,26.913
2016-11-06T13:01:22.000000Z,29.4,90.9,12.7,99.9,7.7,4.11,26.911
2016-11-06T13:31:22.000000Z,30.3,92.2,12.8,99.9,7.9,4.11,26.909
2016-11-06T14:01:22.000000Z,29.7,90.4,13.7,99.9,7.4,4.11,26.927
2016-11-06T14:31:22.000000Z,30.6,88.2,13.2,99.9,8.0,4.11,26.916
2016-11-06T15:01:22.000000Z,31.2,87.9,13.4,99.9,7.6,4.11,26.899
2016-11-06T15:31:22.000000Z,30.5,87.3,13.1,99.9,7.2,4.11,26.9
2016-11-06T16:01:22.000000Z,29.9,86.3,12.9,99.9,7.0,4.11,26.911
2016-11-06T16:31:22.000000Z,31.2,87.7,12.4,99.9,6.7,4.1,26.915
2016-11-06T17:01:22.000000Z,29.3,90.2,12.2,99.9,6.5,4.11,26.915
2016-11-06T17:31:22.000000Z,30.6,89.3,11.8,99.9,6.4,4.1,26.926
2016-11-06T18:01:22.000000Z,29.6,91.3,11.7,99.9,6.3,4.11,26.894
2016-11-06T18:31:22.000000Z,28.8,90.1,11.2,99.9,6.3,4.11,26.905
2016-11-06T19:01:22.000000Z,29.6,89.4,11.0,99.9,6.3,4.1,26.897
2016-11-06T19:31:22.000000Z,30.9,88.9,10.8,99.9,6.2,4.1,26.898
2016-11-06T20:01:22.000000Z,29.3,87.8,10.6,99.9,6.1,4.1,26.895
2016-11-06T21:01:22.000000Z,28.5,88.4,10.3,99.9,6.1,4.1,26.888
2016-11-06T21:31:22.000000Z,28.6,87.9,10.2,99.9,6.1,4.1,26.886
2016-11-06T22:01:22.000000Z,28.2,87.0,10.2,99.9,6.1,4.1,26.882
2016-11-06T22:31:22.000000Z,28.3,87.9,10.1,99.9,6.0,4.1,26.88
2016-11-06T23:01:22.000000Z,29.3,88.5,10.0,99.9,6.0,4.09,26.879
2016-11-06T23:31:22.000000Z,28.8,87.9,10.0,99.9,5.9,4.09,26.876
2016-11-07T00:01:22.000000Z,28.8,88.7,9.9,99.9,5.7,4.09,26.873
2016-11-07T00:31:22.000000Z,29.1,88.0,9.8,99.9,5.6,4.09,26.873
2016-11-07T01:01:22.000000Z,28.9,88.9,9.8,99.9,5.6,4.09,26.873
2016-11-07T01:31:22.000000Z,29.9,88.9,9.8,99.9,5.6,4.09,26.872
2016-11-07T02:01:22.000000Z,30.0,89.0,9.8,99.9,5.6,4.09,26.872
2016-11-07T02:31:22.000000Z,30.5,90.2,9.8,99.9,5.6,4.09,26.871
2016-11-07T03:01:22.000000Z,28.9,90.4,9.8,99.9,5.5,4.09,26.886
2016-11-07T03:31:22.000000Z,27.9,90.7,9.8,99.9,5.5,4.09,26.903
2016-11-07T04:01:22.000000Z,29.1,90.2,9.9,99.9,5.5,4.09,26.907
2016-11-07T04:31:22.000000Z,28.2,90.9,9.8,99.9,5.4,4.09,26.911
2016-11-07T05:01:22.000000Z,28.8,90.9,9.8,99.9,5.3,4.09,26.904
2016-11-07T05:31:22.000000Z,28.9,90.4,9.8,99.9,5.4,4.09,26.91
2016-11-07T06:01:22.000000Z,30.3,93.1,9.9,99.9,5.3,4.09,26.906
2016-11-07T06:31:22.000000Z,29.5,91.9,9.8,99.9,5.5,4.09,26.901
2016-11-07T07:01:22.000000Z,29.7,92.1,9.9,99.9,5.5,4.09,26.902
2016-11-07T07:31:22.000000Z,29.8,93.4,9.9,99.9,5.5,4.09,26.904
2016-11-07T08:01:22.000000Z,29.9,94.5,10.1,99.9,5.5,4.09,26.903
2016-11-07T08:31:22.000000Z,29.8,99.9,10.8,99.9,5.6,4.09,26.924
2016-11-07T09:01:22.000000Z,31.4,99.9,12.0,99.9,5.7,4.09,26.922
2016-11-07T09:31:22.000000Z,31.5,98.8,11.4,99.9,5.7,4.09,26.92
2016-11-07T10:01:22.000000Z,31.7,99.9,11.3,99.9,5.9,4.09,26.921
2016-11-07T10:31:22.000000Z,30.4,97.3,11.2,99.9,6.0,4.09,26.917
2016-11-07T11:01:22.000000Z,32.1,97.8,11.7,99.9,6.0,4.09,26.917
2016-11-07T11:31:22.000000Z,30.5,96.3,11.5,99.9,5.8,4.09,26.921
2016-11-07T12:01:22.000000Z,31.3,95.9,11.4,99.9,6.0,4.09,26.923
2016-11-07T12:31:22.000000Z,29.3,95.6,11.4,99.9,6.0,4.09,26.917
2016-11-07T13:31:22.000000Z,28.9,94.2,11.4,99.9,6.1,4.09,26.919
2016-11-07T14:01:22.000000Z,30.5,94.2,11.6,99.9,6.6,4.09,26.915
2016-11-07T14:31:22.000000Z,29.1,94.3,11.6,99.9,6.6,4.09,26.908
2016-11-07T15:01:22.000000Z,30.0,94.7,11.8,99.9,6.7,4.09,26.902
2016-11-07T15:31:22.000000Z,30.3,93.6,11.9,99.9,6.5,4.09,26.897
2016-11-07T16:01:22.000000Z,29.4,94.6,11.8,99.9,5.9,4.09,26.884
2016-11-07T16:31:22.000000Z,29.3,93.1,11.6,99.9,5.4,4.09,26.899
2016-11-07T17:31:22.000000Z,27.6,91.1,10.5,99.9,5.0,4.09,26.919
2016-11-07T18:01:22.000000Z,28.1,91.0,10.3,99.9,4.7,4.09,26.922
2016-11-07T18:31:22.000000Z,27.2,91.5,10.1,99.9,4.5,4.08,26.925
2016-11-07T19:01:22.000000Z,29.0,91.9,9.9,99.9,4.4,4.09,26.927
2016-11-07T19:31:22.000000Z,27.3,92.7,9.7,99.9,4.1,4.09,26.933
2016-11-07T20:01:22.000000Z,28.0,95.3,9.6,99.9,3.9,4.09,26.939
2016-11-07T20:31:22.000000Z,28.4,92.1,9.4,99.9,3.8,4.09,26.934
2016-11-07T21:01:22.000000Z,29.6,92.0,9.2,99.9,3.7,4.08,26.933
2016-11-07T21:31:22.000000Z,29.3,91.6,9.1,99.9,3.7,4.09,26.931
2016-11-07T22:01:22.000000Z,28.7,91.0,8.9,99.9,3.6,4.09,26.929
2016-11-07T22:31:22.000000Z,27.9,92.3,8.8,99.9,3.3,4.08,26.93
2016-11-07T23:01:22.000000Z,29.1,91.0,8.7,99.9,3.2,4.08,26.934
2016-11-07T23:31:22.000000Z,26.8,91.4,8.4,99.9,2.6,4.09,26.933
2016-11-08T00:01:22.000000Z,28.5,91.3,8.3,99.9,1.7,4.08,27.051
2016-11-08T00:31:22.000000Z,27.0,92.2,8.1,99.9,1.4,4.08,27.141
2016-11-08T01:01:22.000000Z,27.2,91.2,7.9,99.9,1.4,4.08,27.056
2016-11-08T01:31:22.000000Z,27.1,90.9,7.7,99.9,1.5,4.09,26.983
2016-11-08T02:01:22.000000Z,27.5,91.1,7.6,99.9,1.5,4.08,26.943
2016-11-08T02:31:22.000000Z,27.4,90.6,7.4,99.9,1.6,4.08,26.937
2016-11-08T03:01:22.000000Z,27.4,91.4,7.4,99.9,1.6,4.08,26.933
2016-11-08T03:31:22.000000Z,25.9,94.1,7.3,99.9,1.5,4.09,26.939
2016-11-08T04:01:22.000000Z,26.9,95.2,7.3,99.9,1.6,4.08,26.934
2016-11-08T04:31:22.000000Z,27.9,99.9,7.5,99.9,1.7,4.08,26.931
2016-11-08T05:01:22.000000Z,27.0,99.9,7.9,99.9,1.8,4.08,26.931
2016-11-08T05:31:22.000000Z,29.1,99.9,7.7,99.9,1.9,4.08,26.926
2016-11-08T06:01:22.000000Z,30.2,99.9,7.7,99.9,1.9,4.08,26.928
2016-11-08T06:31:22.000000Z,28.4,99.0,7.5,99.9,2.1,4.08,26.927
2016-11-08T07:01:22.000000Z,29.3,99.9,7.6,99.9,2.1,4.08,26.915
2016-11-08T07:31:22.000000Z,28.1,99.9,7.7,99.9,2.0,4.08,26.922
2016-11-08T08:01:22.000000Z,28.3,99.9,7.6,99.9,2.0,4.08,26.918
2016-11-08T08:31:22.000000Z,30.2,99.9,7.6,99.9,2.1,4.08,26.918
2016-11-08T09:01:22.000000Z,30.4,99.9,7.7,99.9,2.3,4.08,26.919
2016-11-08T09:31:22.000000Z,29.5,99.9,7.7,99.9,2.4,4.08,26.915
2016-11-08T10:01:22.000000Z,29.6,99.9,7.6,99.9,2.6,4.07,26.906
2016-11-08T10:31:22.000000Z,29.2,99.9,8.0,99.9,2.6,4.08,26.904
2016-11-08T11:01:22.000000Z,29.4,99.9,8.5,99.9,2.8,4.08,26.904
2016-11-08T11:31:22.000000Z,29.3,99.9,8.3,99.9,2.9,4.08,26.903
2016-11-08T12:01:22.000000Z,28.5,99.9,8.3,99.9,2.8,4.08,26.902
2016-11-08T12:31:22.000000Z,28.3,99.9,8.4,99.9,3.0,4.08,26.902
2016-11-08T13:01:22.000000Z,29.9,99.9,8.5,99.9,3.0,4.08,26.897
2016-11-08T13:31:22.000000Z,28.8,99.9,8.4,99.9,3.3,4.08,26.895
2016-11-08T14:01:22.000000Z,28.8,99.9,8.4,99.9,3.3,4.08,26.889
2016-11-08T14:31:22.000000Z,28.1,99.9,8.3,99.9,3.8,4.09,26.888
2016-11-08T15:01:22.000000Z,28.7,99.9,8.6,99.9,4.0,4.09,26.877
2016-11-08T15:31:22.000000Z,28.1,99.9,8.6,99.9,3.5,4.08,26.869
2016-11-08T16:01:22.000000Z,28.9,99.9,8.4,99.9,3.2,4.08,26.887
2016-11-08T16:31:22.000000Z,26.6,98.5,8.1,99.9,2.8,4.08,26.886
2016-11-08T17:01:22.000000Z,29.1,99.9,8.1,99.9,2.7,4.08,26.885
2016-11-08T17:31:22.000000Z,27.8,99.9,8.4,99.9,2.3,4.08,26.883
2016-11-08T18:01:22.000000Z,26.6,99.9,8.7,99.9,2.3,4.08,26.881
2016-11-08T18:31:22.000000Z,28.6,99.9,8.0,99.9,1.8,4.08,26.878
2016-11-08T19:01:22.000000Z,28.5,99.9,7.8,99.9,1.9,4.08,26.878
2016-11-08T19:31:22.000000Z,28.4,99.9,7.7,99.9,2.1,4.08,26.88
2016-11-08T20:01:22.000000Z,28.1,99.9,7.5,99.9,2.1,4.08,26.879
2016-11-08T20:31:22.000000Z,29.5,98.0,7.3,99.9,1.6,4.08,26.876
2016-11-08T21:01:22.000000Z,30.3,97.1,7.0,99.9,1.4,4.08,26.875
2016-11-08T21:31:22.000000Z,29.6,99.9,7.0,99.9,1.1,4.08,26.874
2016-11-08T22:01:22.000000Z,29.3,99.1,6.9,99.9,1.1,4.08,26.875
2016-11-08T22:31:22.000000Z,26.6,99.9,6.8,99.9,1.1,4.08,26.877
2016-11-08T23:01:22.000000Z,27.3,99.7,6.8,99.9,1.2,4.08,26.877
2016-11-08T23:31:22.000000Z,27.7,99.9,7.6,99.9,1.2,4.08,26.876
2016-11-09T00:01:22.000000Z,27.3,99.9,7.2,99.9,1.1,4.08,26.876
2016-11-09T00:31:22.000000Z,27.4,99.9,7.3,99.9,1.0,4.08,26.875
2016-11-09T01:31:22.000000Z,28.9,99.9,7.0,99.9,1.2,4.08,26.875
2016-11-09T02:01:22.000000Z,28.3,99.9,6.9,99.9,1.2,4.08,26.875
2016-11-09T02:31:22.000000Z,29.0,99.9,6.8,99.9,1.3,4.08,26.874
2016-11-09T03:01:22.000000Z,28.0,99.9,6.7,99.9,1.5,4.08,26.875